Погода в Сане

Йемен     15°22′13″N   44°10′49″E
темп.,
°C
ветер,
м/с
пор.,
м/с
влажн.,
%
обл.,
%
осадки,
мм/ч
давл.,
гПа
погр.,
м
27 ноября, сб
сб2700:00+12в22570 0.0 1021161
03:00+11в22600 0.0 1021199
06:00+11всв22570 0.0 1022178
09:00+15ссв22430 0.0 1022654
12:00+20ссв24323 0.0 10171818
15:00+21в752846 0.0 10152045
18:00+16в67390 0.0 1019531
21:00+14всв23453 0.0 1022246
28 ноября, вс
вс2800:00+12всв224939 0.0 1021212
03:00+11всв22545 0.0 1021195
06:00+9всв22570 0.0 1023141
09:00+13всв34410 0.0 1023736
12:00+18всв23265 0.0 10181516
15:00+20в64215 0.0 10161851
18:00+15в56310 0.0 1019393
21:00+12в22390 0.0 1022261
29 ноября, пн
пн2900:00+11всв22410 0.0 1022228
03:00+9всв22430 0.0 1021166
06:00+8всв22470 0.0 1023143
09:00+12св33360 0.0 1024696
12:00+17всв22230 0.0 10191488
15:00+19ссв22200 0.0 10161844
18:00+14в44300 0.0 1019400
21:00+11в23410 0.0 1023253
30 ноября, вт
вт3000:00+10в224510 0.0 1022221
03:00+8св225011 0.0 1021165
06:00+7всв22581 0.0 1023117
09:00+12ссв233577 0.0 1022520
12:00+17с43170 0.0 10181321
15:00+20с54130 0.0 10141733
18:00+14всв45240 0.0 1017384
21:00+11в22340 0.0 1021228
1 декабря, ср
ср100:00+9всв22400 0.0 1020169
03:00+8св22450 0.0 1019123
06:00+6св22490 0.0 1021104
09:00+12св23310 0.0 1020562
12:00+16с22150 0.0 10161288
15:00+19с12110 0.0 10121710
18:00+14в44200 0.0 1016278
21:00+11в11251 0.0 1019207